This is the latest recevied weather packets stored in our database for station/object KE4EST. If no packets are shown the sender has not sent any weather packets the latest 10 day(s).
| Time | Temp. | Humidity | Pressure | Rain* | Wind** | Luminosity | Snow |
|---|---|---|---|---|---|---|---|
| 1777483892 | 17.22° C | 99% | 1013.9 hPa | 0 mm | - | 68 W/m² | - |
| 1777483589 | 17.22° C | 99% | 1013.8 hPa | 0 mm | - | 44 W/m² | - |
| 1777483289 | 17.22° C | 99% | 1013.8 hPa | 0 mm | - | 43 W/m² | - |
| 1777482985 | 17.22° C | 99% | 1014.1 hPa | 0 mm | - | 49 W/m² | - |
| 1777482682 | 17.22° C | 99% | 1014.1 hPa | 0 mm | - | 101 W/m² | - |
| 1777482378 | 16.67° C | 99% | 1014.2 hPa | 0 mm | - | 136 W/m² | - |
| 1777482076 | 16.67° C | 99% | 1014.3 hPa | 0 mm | - | 62 W/m² | - |
| 1777481774 | 16.67° C | 99% | 1014.3 hPa | 0 mm | - | 59 W/m² | - |
| 1777481471 | 16.67° C | 99% | 1014.5 hPa | 0 mm | - | 58 W/m² | - |
| 1777481167 | 16.67° C | 99% | 1014.4 hPa | 0 mm | - | 34 W/m² | - |
| 1777480863 | 16.67° C | 99% | 1014.4 hPa | 0 mm | - | 44 W/m² | - |
| 1777480560 | 16.67° C | 99% | 1014.7 hPa | 0 mm | - | 71 W/m² | - |
| 1777480257 | 16.67° C | 99% | 1014.6 hPa | 0 mm | - | 47 W/m² | - |
| 1777479953 | 16.67° C | 99% | 1014.6 hPa | 0 mm | - | 39 W/m² | - |
| 1777479650 | 16.11° C | 99% | 1014.7 hPa | 0 mm | - | 25 W/m² | - |
| 1777479348 | 16.11° C | 99% | 1014.7 hPa | 0 mm | - | 38 W/m² | - |
| 1777479044 | 16.11° C | 99% | 1014.7 hPa | 0 mm | - | 22 W/m² | - |
| 1777478741 | 16.11° C | 99% | 1014.6 hPa | 0 mm | - | 19 W/m² | - |
| 1777478437 | 16.11° C | 99% | 1014.9 hPa | 0 mm | - | 12 W/m² | - |
| 1777478134 | 16.67° C | 99% | 1014.6 hPa | 0 mm | - | 29 W/m² | - |
| 1777477831 | 16.67° C | 99% | 1014.7 hPa | 1.78 mm | - | 33 W/m² | - |
| 1777477526 | 16.67° C | 99% | 1014.8 hPa | 4.83 mm | - | 34 W/m² | - |
| 1777477223 | 16.67° C | 99% | 1014.7 hPa | 4.83 mm | - | 43 W/m² | - |
| 1777476919 | 16.67° C | 99% | 1015 hPa | 0 mm | - | 55 W/m² | - |
| 1777476617 | 16.67° C | 99% | 1014.9 hPa | 0 mm | - | 33 W/m² | - |
* Rain latest hour (hover to see other rain measurements)
** Current wind speed in m/s (hover to see current wind gust speed)